This demonstration page uses our WeatherBlox Daily Observations layout. Learn more.

Left ArrowRight Arrow

44.31136, -96.79839

Hourly Observations for January 29, 2022

Temp ( °F °C ) Dew Point ( °F °C ) Humidity (%) Winds ( mph kmh ) Pressure ( in mb ) Visibility ( mi km ) Precip ( " mm )
12:56 am 00:56 Clear 18 -7.8 12 -11.1 77 77 SE 8 13 30.11 1020 10 16 0.00 0.00
1:56 am 01:56 Clear 16 -8.9 11 -11.7 80 80 SE 7 11 30.09 1019 10 16 0.00 0.00
2:56 am 02:56 Clear 14 -10 10 -12.2 84 84 ESE 6 9 30.09 1019 10 16 0.00 0.00
3:56 am 03:56 Clear 12 -11.1 9 -12.8 87 87 SE 8 13 30.06 1018 10 16 0.00 0.00
4:56 am 04:56 Clear 13 -10.6 9 -12.8 84 84 SSE 8 13 30.04 1017 10 16 0.00 0.00
5:56 am 05:56 Clear 10 -12.2 7 -13.9 87 87 SE 7 11 30.04 1017 10 16 0.00 0.00
6:56 am 06:56 Clear 10 -12.2 7 -13.9 87 87 SE 7 11 30.04 1017 10 16 0.00 0.00
7:56 am 07:56 Sunny 10 -12.2 7 -13.9 87 87 S 3 6 30.03 1017 10 16 0.00 0.00
8:56 am 08:56 Sunny 15 -9.4 12 -11.1 88 88 S 5 7 30.01 1016 10 16 0.00 0.00
9:56 am 09:56 Sunny 25 -3.9 17 -8.3 72 72 WSW 5 7 30.00 1016 10 16 0.00 0.00
10:56 am 10:56 Sunny 32 0 21 -6.1 64 64 WNW 14 22 29.99 1016 10 16 0.00 0.00
11:56 am 11:56 Sunny 34 1.1 21 -6.1 59 59 WNW 17 28 29.98 1015 10 16 0.00 0.00
12:56 pm 12:56 Sunny 35 1.7 21 -6.1 57 57 NW 17 28 29.98 1015 10 16 0.00 0.00
1:56 pm 13:56 Sunny 36 2.2 22 -5.6 57 57 NW 14 22 29.99 1016 10 16 0.00 0.00
2:56 pm 14:56 Sunny 35 1.7 23 -5 61 61 NW 16 26 29.99 1016 10 16 0.00 0.00
3:56 pm 15:56 Sunny 35 1.7 24 -4.4 64 64 NW 15 24 30.01 1016 10 16 0.00 0.00
4:56 pm 16:56 Sunny 33 0.6 24 -4.4 70 70 NW 10 17 30.03 1017 10 16 0.00 0.00
5:56 pm 17:56 Clear 30 -1.1 23 -5 75 75 NW 16 26 30.06 1018 10 16 0.00 0.00
6:56 pm 18:56 Clear 26 -3.3 21 -6.1 81 81 NNW 14 22 30.09 1019 10 16 0.00 0.00
7:56 pm 19:56 Clear 24 -4.4 19 -7.2 81 81 NW 15 24 30.11 1020 10 16 0.00 0.00
8:56 pm 20:56 Clear 21 -6.1 17 -8.3 85 85 NW 12 19 30.12 1020 10 16 0.00 0.00
9:56 pm 21:56 Clear 19 -7.2 15 -9.4 84 84 NW 9 15 30.13 1020 10 16 0.00 0.00
10:29 pm 22:29 Mostly Cloudy 19 -7 16 -9 86 86 NNW 18 30 30.13 1020 10 16 0.00 0.00
10:56 pm 22:56 Cloudy 17 -8.3 14 -10 88 88 N 12 19 30.13 1020 10 16 0.00 0.00
11:43 pm 23:43 Partly Cloudy 16 -9 12 -11 86 86 NNW 13 20 30.16 1021 10 16 0.00 0.00
11:56 pm 23:56 Clear 15 -9.4 13 -10.6 91 91 NNW 10 17 30.14 1021 10 16 0.00 0.00

Powered by AerisWeather